ONEWEB-0132 (47278 NORAD) Tracking and Keplerian Element Data

This shows tracking and keplerian element data for the satellite.

Feedback or suggestion? Click here.




ElementValue
Catalog47278
NameONEWEB-0132
Epoch Orbit512
Epoch Day21.16668981
Epoch Year2021
RAAN27.932
Inclination87.3589
Eccentricity0.0009019
Argument of Perigee150.5886
Mean Anonmoly298.2339
Mean Motion14.91316072
Decay Rate-0.01484976
L11 47278U 20100W 21021.16668981 -.01484976 00000-0 -16152+0 0 9997
L22 47278 87.3589 27.9320 0009019 150.5886 298.2339 14.91316072 5123

Live tracking and technical data element details for ONEWEB-0132 (NORAD 47278). ONEWEB-0132 can be tracked NOW for your location showing map with azimuth and elevation plus other details from your city location.

Track the satellite on the map from your city or location and see movement details for azimuth, elevation, latitude, longitude, range, height, and movement on the map or in text.







IsCatalogInMostPopularTable: catalog: 47278, numindb: 16
Update: records affected: 1



GetName: 47278 ONEWEB-0132

Hit Count: updated at: Sat, 23 Jan 2021 17:31:58 GMT